STARLINK-11447 [DTC]

Last updated on Thu Jan 23 2025 00:02:04 GMT+0000 (Coordinated Universal Time)

1 62418U 24249K 25022.46122943 .00022890 00000+0 13390-3 0 9993 2 62418 42.9982 127.4394 0001819 283.2989 76.7678 15.77879878 4795
UTC large
Height (km)
Speed (km/s)
/
Latitude / Longitude
Inclination (degrees)
Orbital Period (minutes)
Azimuth
Elevation
Range (km)
Doppler Factor

Next 0 passes for location: London (51.5072 / 0.1276)

Sorry there are no passes over London.